When you browse on this site, cookies collect data to enhance your experience and personalize the content and advertising you see.
Visit our Privacy Policy to learn more. By continuing to use the site, you agree to this use of cookies and data.
  • In Portugal
  • List of Countries
  • For 7 days
  • Water Temperature
  • Weather Map
  • Weather Widgets
  • user-avatar
    Login

    Hourly Weather Senaki

    Today, 29 May, Friday

    Time Temperature Precipitation Wind Pressure Humidity
    00:00 +16°C° 1.2 mm 0 mps 759 mmHg 96%
    01:00 +16°C° 0.2 mm 0 mps 758 mmHg 96%
    02:00 +16°C° 0.2 mm 1 mps 758 mmHg 96%
    03:00 +16°C° 0 mm 1 mps 757 mmHg 94%
    04:00 +16°C° 0 mm 1 mps 757 mmHg 94%
    05:00 +15°C° 0 mm 0 mps 756 mmHg 94%
    06:00 +15°C° 0 mm 0 mps 756 mmHg 94%
    07:00 +18°C° 0.1 mm 1 mps 755 mmHg 91%
    08:00 +18°C° 0.1 mm 2 mps 755 mmHg 89%
    09:00 +19°C° 0.1 mm 3 mps 755 mmHg 86%
    10:00 +20°C° 0.2 mm 3 mps 755 mmHg 82%
    11:00 +20°C° 0.2 mm 3 mps 754 mmHg 79%
    12:00 +21°C° 0.2 mm 3 mps 754 mmHg 76%
    13:00 +21°C° 0.2 mm 3 mps 755 mmHg 75%
    14:00 +21°C° 0.2 mm 3 mps 755 mmHg 74%
    15:00 +21°C° 0.2 mm 4 mps 755 mmHg 73%
    16:00 +20°C° 0 mm 3 mps 755 mmHg 76%
    17:00 +19°C° 0 mm 3 mps 756 mmHg 80%
    18:00 +19°C° 0 mm 3 mps 756 mmHg 83%
    19:00 +18°C° 0.1 mm 3 mps 757 mmHg 86%
    20:00 +18°C° 0.1 mm 2 mps 757 mmHg 89%
    21:00 +17°C° 0.1 mm 2 mps 758 mmHg 92%
    22:00 +17°C° 0.2 mm 2 mps 758 mmHg 93%
    23:00 +17°C° 0.2 mm 2 mps 758 mmHg 94%

    Tomorrow, 30 May, Saturday

    Time Temperature Precipitation Wind Pressure Humidity
    00:00 +17°C° 0.2 mm 2 mps 758 mmHg 96%
    01:00 +16°C° 0.1 mm 2 mps 758 mmHg 96%
    02:00 +16°C° 0.1 mm 2 mps 759 mmHg 96%
    03:00 +16°C° 0.1 mm 2 mps 759 mmHg 96%
    04:00 +16°C° 0 mm 1 mps 759 mmHg 96%
    05:00 +16°C° 0 mm 1 mps 759 mmHg 95%
    06:00 +16°C° 0 mm 1 mps 760 mmHg 95%
    07:00 +19°C° 0 mm 1 mps 760 mmHg 87%
    08:00 +21°C° 0 mm 1 mps 760 mmHg 79%
    09:00 +22°C° 0 mm 1 mps 760 mmHg 72%
    10:00 +23°C° 0 mm 1 mps 759 mmHg 68%
    11:00 +24°C° 0 mm 1 mps 759 mmHg 64%
    12:00 +25°C° 0 mm 2 mps 759 mmHg 60%
    13:00 +25°C° 0 mm 2 mps 759 mmHg 60%
    14:00 +25°C° 0 mm 3 mps 759 mmHg 60%
    15:00 +25°C° 0 mm 3 mps 759 mmHg 59%
    16:00 +24°C° 0 mm 3 mps 759 mmHg 63%
    17:00 +22°C° 0 mm 3 mps 759 mmHg 67%
    18:00 +21°C° 0 mm 3 mps 759 mmHg 71%
    19:00 +19°C° 0.1 mm 2 mps 759 mmHg 78%
    20:00 +17°C° 0.1 mm 2 mps 760 mmHg 86%
    21:00 +15°C° 0.1 mm 1 mps 760 mmHg 93%
    22:00 +15°C° 0.1 mm 1 mps 760 mmHg 93%
    23:00 +14°C° 0.1 mm 0 mps 760 mmHg 93%

    Day after tomorrow, 31 May, Sunday

    Time Temperature Precipitation Wind Pressure Humidity
    00:00 +13°C° 0.1 mm 0 mps 761 mmHg 93%
    01:00 +13°C° 0 mm 0 mps 760 mmHg 93%
    02:00 +14°C° 0 mm 1 mps 760 mmHg 92%
    03:00 +14°C° 0 mm 1 mps 760 mmHg 92%
    04:00 +14°C° 0 mm 1 mps 760 mmHg 90%
    05:00 +15°C° 0 mm 1 mps 761 mmHg 89%
    06:00 +15°C° 0 mm 1 mps 761 mmHg 88%
    07:00 +18°C° 0 mm 1 mps 760 mmHg 79%
    08:00 +21°C° 0 mm 1 mps 760 mmHg 70%
    09:00 +23°C° 0 mm 1 mps 760 mmHg 62%
    10:00 +25°C° 0 mm 1 mps 760 mmHg 55%
    11:00 +27°C° 0 mm 1 mps 760 mmHg 49%
    12:00 +28°C° 0 mm 1 mps 759 mmHg 43%
    13:00 +28°C° 0 mm 1 mps 759 mmHg 43%
    14:00 +28°C° 0 mm 2 mps 759 mmHg 44%
    15:00 +28°C° 0 mm 3 mps 759 mmHg 44%
    16:00 +27°C° 0 mm 2 mps 758 mmHg 52%
    17:00 +25°C° 0 mm 2 mps 758 mmHg 59%
    18:00 +24°C° 0 mm 2 mps 758 mmHg 67%
    19:00 +22°C° 0 mm 1 mps 758 mmHg 70%
    20:00 +21°C° 0 mm 1 mps 758 mmHg 74%
    21:00 +19°C° 0 mm 1 mps 759 mmHg 78%
    22:00 +16°C° 0 mm 0 mps 758 mmHg 78%
    23:00 +16°C° 0 mm 0 mps 758 mmHg 78%

    1 June, Monday

    Time Temperature Precipitation Wind Pressure Humidity
    00:00 +15°C° 0 mm 0 mps 757 mmHg 78%
    01:00 +15°C° 0 mm 0 mps 757 mmHg 78%
    02:00 +15°C° 0 mm 0 mps 757 mmHg 78%
    03:00 +16°C° 0 mm 1 mps 756 mmHg 78%
    04:00 +15°C° 0 mm 0 mps 756 mmHg 77%
    05:00 +16°C° 0 mm 0 mps 756 mmHg 76%
    06:00 +17°C° 0 mm 0 mps 756 mmHg 75%
    07:00 +21°C° 0 mm 1 mps 755 mmHg 68%
    08:00 +23°C° 0 mm 1 mps 755 mmHg 61%
    09:00 +25°C° 0 mm 1 mps 755 mmHg 55%
    10:00 +26°C° 0 mm 2 mps 755 mmHg 53%
    11:00 +27°C° 0 mm 2 mps 755 mmHg 52%
    12:00 +28°C° 0 mm 3 mps 754 mmHg 51%
    13:00 +27°C° 0 mm 3 mps 754 mmHg 52%
    14:00 +27°C° 0 mm 4 mps 754 mmHg 54%
    15:00 +26°C° 0 mm 4 mps 754 mmHg 55%
    16:00 +23°C° 0.2 mm 4 mps 754 mmHg 63%
    17:00 +22°C° 0.2 mm 3 mps 754 mmHg 70%
    18:00 +20°C° 0.2 mm 3 mps 754 mmHg 78%
    19:00 +19°C° 0.4 mm 2 mps 755 mmHg 83%
    20:00 +17°C° 0.4 mm 2 mps 755 mmHg 88%
    21:00 +16°C° 0.4 mm 1 mps 756 mmHg 93%
    22:00 +16°C° 0.2 mm 1 mps 756 mmHg 93%
    23:00 +15°C° 0.2 mm 1 mps 756 mmHg 93%

    2 June, Tuesday

    Time Temperature Precipitation Wind Pressure Humidity
    00:00 +15°C° 0.2 mm 1 mps 756 mmHg 93%
    01:00 +15°C° 0 mm 1 mps 756 mmHg 93%
    02:00 +15°C° 0 mm 1 mps 756 mmHg 94%
    03:00 +14°C° 0 mm 2 mps 756 mmHg 94%
    04:00 +15°C° 0 mm 2 mps 755 mmHg 93%
    05:00 +15°C° 0 mm 2 mps 755 mmHg 92%
    06:00 +16°C° 0 mm 2 mps 755 mmHg 91%
    07:00 +17°C° 0 mm 2 mps 755 mmHg 85%
    08:00 +19°C° 0 mm 2 mps 755 mmHg 79%
    09:00 +21°C° 0 mm 2 mps 754 mmHg 72%
    10:00 +23°C° 0 mm 2 mps 754 mmHg 67%
    11:00 +24°C° 0 mm 2 mps 755 mmHg 61%
    12:00 +26°C° 0 mm 2 mps 755 mmHg 56%
    13:00 +26°C° 0 mm 2 mps 754 mmHg 54%
    14:00 +27°C° 0 mm 2 mps 754 mmHg 53%
    15:00 +27°C° 0 mm 2 mps 754 mmHg 52%
    16:00 +26°C° 0 mm 2 mps 754 mmHg 56%
    17:00 +25°C° 0 mm 2 mps 754 mmHg 61%
    18:00 +24°C° 0 mm 2 mps 754 mmHg 66%
    19:00 +21°C° 0 mm 2 mps 755 mmHg 73%
    20:00 +20°C° 0 mm 1 mps 755 mmHg 80%
    21:00 +16°C° 0 mm 0 mps 756 mmHg 87%
    22:00 +18°C° 0 mm 1 mps 756 mmHg 85%
    23:00 +16°C° 0 mm 1 mps 755 mmHg 84%

    3 June, Wednesday

    Time Temperature Precipitation Wind Pressure Humidity
    00:00 +16°C° 0 mm 2 mps 755 mmHg 82%
    01:00 +17°C° 0 mm 2 mps 755 mmHg 81%
    02:00 +17°C° 0 mm 2 mps 755 mmHg 80%
    03:00 +17°C° 0 mm 2 mps 754 mmHg 79%
    04:00 +17°C° 0 mm 2 mps 754 mmHg 78%
    05:00 +19°C° 0 mm 1 mps 754 mmHg 78%
    06:00 +17°C° 0 mm 0 mps 754 mmHg 77%
    07:00 +21°C° 0 mm 1 mps 754 mmHg 70%
    08:00 +23°C° 0 mm 1 mps 754 mmHg 63%
    09:00 +25°C° 0 mm 1 mps 754 mmHg 57%
    10:00 +26°C° 0 mm 1 mps 754 mmHg 54%
    11:00 +28°C° 0 mm 2 mps 755 mmHg 51%
    12:00 +29°C° 0 mm 2 mps 755 mmHg 48%
    13:00 +29°C° 0 mm 2 mps 755 mmHg 52%
    14:00 +28°C° 0 mm 3 mps 755 mmHg 55%
    15:00 +27°C° 0 mm 3 mps 755 mmHg 59%
    16:00 +26°C° 0 mm 2 mps 755 mmHg 64%
    17:00 +25°C° 0 mm 1 mps 755 mmHg 69%
    18:00 +22°C° 0 mm 0 mps 755 mmHg 75%
    19:00 +23°C° 0.1 mm 1 mps 755 mmHg 79%
    20:00 +21°C° 0.1 mm 1 mps 755 mmHg 84%
    21:00 +19°C° 0.1 mm 2 mps 755 mmHg 88%
    22:00 +19°C° 0 mm 1 mps 755 mmHg 91%
    23:00 +18°C° 0 mm 1 mps 755 mmHg 93%
    Show more